Location: Sternwarte ZA, Rosenfeld-Brittheim
(48.2889°N, 8.6789°E)
Time: 13:41:04
(UTC+01:00)

X-37B - Visible Passes

Search period start: 03 December 2022 00:00
Search period end: 13 December 2022 00:00
Orbit: 277 x 277 km, 45.0° (Epoch: 01 November)

Date Brightness Start Highest point End Pass type
(mag) Time Alt. Az. Time Alt. Az. Time Alt. Az.
08 Dec 2.7 18:32:38 10° SSW 18:33:21 14° S 18:33:21 14° S visible
09 Dec 2.3 18:32:51 10° SW 18:34:03 19° SSW 18:34:03 19° SSW visible
10 Dec 2.0 18:33:16 10° SW 18:34:42 24° SSW 18:34:42 24° SSW visible
11 Dec 1.9 18:33:47 10° WSW 18:35:21 27° SW 18:35:21 27° SW visible
12 Dec 1.8 18:34:23 10° WSW 18:36:00 29° SW 18:36:00 29° SW visible
